Find Starlink 36884

NORAD ID: 68026 Int'l Des: 2026-040 Owner: SPXS Country: US Constellation: starlink operational
LEOCIRCULARRETROGRADE

リアルタイム位置

3D地球を読み込み中...

Starlink 36884について

説明を読み込み中...

次回通過

Passes for default location (London). Set your location on the main map for personalized predictions.

高度履歴

Loading altitude history...

軌道要素

1 68026U 26040M 26106.40996454 .00014243 00000-0 44259-3 0 9991
2 68026 97.2864 55.9653 0001597 98.4319 261.7105 15.33449918 7241
Epoch: Apr 16, 2026 • Age: 16 hours

現在のステータス

高度 468.2 km
速度 7.63 km/s
衛星直下点 23.59°N, 175.82°W
打ち上げ日 Mar 1, 2026
運用期間 0.1 years
タイプ internet

技術仕様

分類 Payload
質量 575.00 kg
乾燥質量 530.00 kg
総質量 575.00 kg
長さ 0.30 m
直径 4.10 m
スパン 29.00 m
形状 Box + pan
製造者 SPXS
バスタイプ Starlink V2MO
フェーズステータス In Orbit
所有者/国 SPXS/US

Most Searched